Weather observations for the past three days for
Columbia / Maury County
| Date | Time (cdt) | Wind (mph) | Vis. (mi.) | Weather | Sky Cond. | Temperature (ºF) | Relative Humidity | Wind Chill (°F) | Heat Index (°F) | Pressure | Precipitation (in) | ||||||
|---|---|---|---|---|---|---|---|---|---|---|---|---|---|---|---|---|---|
| Air | Dwpt | 6 hour | altimeter (in) | sea level (mb) | 1 hr | 3 hr | 6 hr | ||||||||||
| Max. | Min. | ||||||||||||||||
| 07 | 08:30 | NE 8 G 14 | 10.00 | Fair | CLR | 55.4 | 46.4 | 72% | 29.99 | 0.0 | |||||||
| 07 | 08:10 | Vrbl 6 | 10.00 | Partly Cloudy | SCT050 | 53.6 | 48.2 | 82% | 29.98 | 0.0 | |||||||
| 07 | 07:55 | N 8 | 9.00 | Overcast | OVC050 | 53.6 | 50 | 88% | 29.98 | 0.0 | |||||||
| 07 | 07:30 | N 5 | 10.00 | Overcast | OVC050 | 51.8 | 51.8 | 100% | 29.98 | 0.0 | |||||||
| 07 | 07:10 | N 3 | 10.00 | Overcast | OVC049 | 51.8 | 51.8 | 100% | 29.98 | 0.0 | |||||||
| 07 | 06:55 | N 5 | 10.00 | Overcast | OVC048 | 51.8 | 51.8 | 100% | 29.97 | 0.0 | |||||||
| 07 | 06:35 | N 5 | 10.00 | Overcast | OVC047 | 51.8 | 51.8 | 100% | 29.97 | 0.0 | |||||||
| 07 | 06:10 | N 3 | 10.00 | Overcast | OVC045 | 51.8 | 51.8 | 100% | 29.96 | 0.0 | |||||||
| 07 | 05:55 | N 5 | 10.00 | Overcast | OVC043 | 51.8 | 51.8 | 100% | 29.94 | 0.0 | |||||||
| 07 | 05:30 | N 5 | 10.00 | Overcast | OVC042 | 51.8 | 51.8 | 100% | 29.93 | 0.0 | |||||||
| 07 | 05:10 | N 5 | 10.00 | Overcast | OVC042 | 51.8 | 51.8 | 100% | 29.93 | 0.0 | |||||||
| 07 | 04:55 | N 3 | 10.00 | Overcast | FEW034 OVC042 | 51.8 | 51.8 | 100% | 29.94 | 0.0 | |||||||
| 07 | 04:30 | N 6 | 10.00 | Overcast | BKN033 OVC041 | 51.8 | 51.8 | 100% | 29.93 | 0.0 | |||||||
| 07 | 04:10 | Calm | 10.00 | Overcast | FEW033 SCT041 OVC075 | 51.8 | 51.8 | 100% | 29.94 | 0.0 | |||||||
| 07 | 03:55 | N 6 | 10.00 | Overcast | SCT032 SCT043 OVC075 | 51.8 | 51.8 | 100% | 29.92 | 0.0 | |||||||
| 07 | 03:30 | Calm | 10.00 | Overcast | OVC031 | 51.8 | 51.8 | 100% | 29.95 | 0.0 | |||||||
| 07 | 03:10 | Vrbl 3 | 10.00 | Overcast | SCT031 OVC055 | 51.8 | 51.8 | 100% | 29.94 | 0.0 | |||||||
| 07 | 03:00 | N 5 | 10.00 | Overcast | OVC055 | 51.8 | 51.8 | 100% | 29.92 | 0.0 | |||||||
| 07 | 02:30 | Calm | 10.00 | Overcast | FEW027 FEW042 OVC050 | 51.8 | 51.8 | 100% | 29.94 | 0.0 | |||||||
| 07 | 02:10 | N 5 | 10.00 | Overcast | BKN027 OVC050 | 53.6 | 51.8 | 94% | 29.93 | 0.0 | |||||||
| 07 | 01:50 | N 5 | 10.00 | Overcast | OVC026 | 53.6 | 53.6 | 100% | 29.93 | 0.0 | |||||||
| 07 | 01:35 | N 3 | 10.00 | Overcast | OVC026 | 53.6 | 53.6 | 100% | 29.94 | 0.0 | |||||||
| 07 | 01:10 | Calm | 10.00 | Overcast | OVC026 | 53.6 | 53.6 | 100% | 29.96 | 0.0 | |||||||
| 07 | 00:50 | Calm | 10.00 | Overcast | OVC025 | 53.6 | 53.6 | 100% | 29.95 | 0.0 | |||||||
| 07 | 00:35 | Vrbl 3 | 10.00 | Overcast | OVC024 | 53.6 | 53.6 | 100% | 29.94 | 0.0 | |||||||
| 07 | 00:10 | N 5 | 10.00 | Overcast | OVC021 | 53.6 | 53.6 | 100% | 29.94 | 0.0 | |||||||
| 06 | 23:50 | Vrbl 3 | 10.00 | Overcast | OVC021 | 53.6 | 53.6 | 100% | 29.95 | 0.0 | |||||||
| 06 | 23:35 | Vrbl 6 | 10.00 | Overcast | OVC022 | 53.6 | 53.6 | 100% | 29.95 | 0.0 | |||||||
| 06 | 23:10 | N 5 | 10.00 | Overcast | OVC021 | 53.6 | 53.6 | 100% | 29.97 | 0.0 | |||||||
| 06 | 22:50 | Vrbl 3 | 10.00 | Overcast | OVC020 | 53.6 | 53.6 | 100% | 29.97 | 0.0 | |||||||
| 06 | 22:35 | Vrbl 6 | 10.00 | Overcast | OVC019 | 53.6 | 53.6 | 100% | 29.95 | 0.0 | |||||||
| 06 | 22:10 | N 7 | 10.00 | Overcast | BKN011 OVC017 | 53.6 | 53.6 | 100% | 29.95 | 0.0 | |||||||
| 06 | 21:50 | Vrbl 7 G 15 | 10.00 | Overcast | SCT006 OVC010 | 53.6 | 53.6 | 100% | 29.95 | 0.0 | |||||||
| 06 | 21:35 | NW 5 | 10.00 | Overcast | BKN006 BKN009 OVC015 | 55.4 | 55.4 | 100% | 29.95 | 0.0 | |||||||
| 06 | 21:10 | Calm | 10.00 | Overcast | OVC016 | 55.4 | 55.4 | 100% | 29.92 | 0.0 | |||||||
| 06 | 20:50 | Calm | 10.00 | Overcast | BKN015 OVC020 | 55.4 | 55.4 | 100% | 29.93 | 0.0 | |||||||
| 06 | 20:35 | Vrbl 3 | 10.00 | Overcast | BKN019 OVC025 | 55.4 | 55.4 | 100% | 29.93 | 0.0 | |||||||
| 06 | 20:15 | N 5 | 10.00 | Overcast | FEW009 SCT015 OVC025 | 55.4 | 55.4 | 100% | 29.94 | 0.0 | |||||||
| 06 | 19:50 | Calm | 10.00 | Overcast | SCT016 BKN023 OVC085 | 55.4 | 55.4 | 100% | 29.93 | 0.0 | |||||||
| 06 | 19:35 | Calm | 10.00 | Overcast | FEW013 OVC023 | 55.4 | 55.4 | 100% | 29.92 | 0.0 | |||||||
| 06 | 19:10 | Calm | 10.00 | Overcast | SCT009 BKN013 OVC023 | 55.4 | 55.4 | 100% | 29.92 | 0.0 | |||||||
| 06 | 18:50 | NE 5 | 10.00 | Mostly Cloudy | SCT009 BKN013 BKN019 | 55.4 | 55.4 | 100% | 29.9 | 0.0 | |||||||
| 06 | 18:35 | NE 5 | 10.00 | Mostly Cloudy | SCT009 BKN019 BKN110 | 55.4 | 55.4 | 100% | 29.9 | 0.0 | |||||||
| 06 | 18:10 | NE 6 | 10.00 | Mostly Cloudy | BKN011 | 55.4 | 55.4 | 100% | 29.91 | 0.0 | |||||||
| 06 | 17:50 | NE 5 | 8.00 | Overcast | FEW007 OVC011 | 55.4 | 55.4 | 100% | 29.92 | 0.0 | |||||||
| 06 | 17:35 | Calm | 10.00 | Overcast | BKN007 OVC012 | 55.4 | 55.4 | 100% | 29.94 | 0.0 | |||||||
| 06 | 17:10 | N 7 | 9.00 | Overcast | BKN006 BKN009 OVC014 | 53.6 | 53.6 | 100% | 29.94 | 0.0 | |||||||
| 06 | 16:50 | N 6 | 5.00 | Fog/Mist | OVC006 | 53.6 | 53.6 | 100% | 29.94 | 0.0 | |||||||
| 06 | 16:35 | N 5 G 12 | 9.00 | Overcast | OVC006 | 53.6 | 53.6 | 100% | 29.93 | 0.0 | |||||||
| 06 | 16:10 | Vrbl 5 G 12 | 9.00 | Overcast | OVC006 | 55.4 | 55.4 | 100% | 29.93 | 0.0 | |||||||
| 06 | 15:50 | N 6 | 9.00 | Overcast | OVC006 | 55.4 | 55.4 | 100% | 29.91 | 0.0 | |||||||
| 06 | 15:35 | Vrbl 3 | 10.00 | Overcast | OVC006 | 55.4 | 55.4 | 100% | 29.89 | 0.0 | |||||||
| 06 | 15:10 | N 5 G 12 | 9.00 | Overcast | OVC005 | 55.4 | 55.4 | 100% | 29.91 | 0.0 | |||||||
| 06 | 14:50 | NW 7 | 10.00 | Overcast | OVC005 | 55.4 | 55.4 | 100% | 29.91 | 0.0 | |||||||
| 06 | 14:35 | Vrbl 6 | 10.00 | Overcast | OVC005 | 57.2 | 57.2 | 100% | 29.9 | 0.0 | |||||||
| 06 | 14:30 | NW 7 | 10.00 | Overcast | OVC005 | 57.2 | 57.2 | 100% | 29.91 | 0.0 | |||||||
| 06 | 14:10 | N 6 | 10.00 | Mostly Cloudy | BKN006 BKN009 BKN013 | 57.2 | 57.2 | 100% | 29.9 | 0.0 | |||||||
| 06 | 13:50 | Vrbl 6 G 12 | 10.00 | Mostly Cloudy | SCT006 SCT009 BKN015 | 57.2 | 57.2 | 100% | 29.91 | 0.0 | |||||||
| 06 | 13:30 | Vrbl 3 | 3.00 | Fog/Mist | BKN006 | 55.4 | 55.4 | 100% | 29.92 | 0.0 | |||||||
| 06 | 13:10 | Vrbl 5 | 10.00 | Overcast | OVC005 | 55.4 | 55.4 | 100% | 29.94 | 0.0 | |||||||
| 06 | 12:50 | Calm | 10.00 | Overcast | OVC004 | 55.4 | 55.4 | 100% | 29.92 | 0.0 | |||||||
| 06 | 12:30 | Calm | 10.00 | Overcast | OVC004 | 55.4 | 55.4 | 100% | 29.89 | 0.0 | |||||||
| 06 | 12:10 | NW 5 | 7.00 | Overcast | OVC004 | 55.4 | 55.4 | 100% | 29.9 | 0.0 | |||||||
| 06 | 11:50 | NW 5 | 9.00 | Overcast | OVC004 | 55.4 | 55.4 | 100% | 29.91 | 0.0 | |||||||
| 06 | 11:30 | Calm | 6.00 | Fog/Mist | OVC005 | 55.4 | 55.4 | 100% | 29.9 | 0.0 | |||||||
| 06 | 11:10 | Vrbl 3 G 12 | 8.00 | Overcast | OVC005 | 55.4 | 55.4 | 100% | 29.93 | 0.0 | |||||||
| 06 | 10:50 | N 6 | 7.00 | Overcast | OVC005 | 55.4 | 55.4 | 100% | 29.9 | 0.0 | |||||||
| 06 | 10:30 | NW 6 | 10.00 | Overcast | OVC005 | 55.4 | 55.4 | 100% | 29.91 | 0.0 | |||||||
| 06 | 10:10 | NW 6 | 10.00 | Overcast | OVC004 | 55.4 | 55.4 | 100% | 29.9 | 0.0 | |||||||
| 06 | 09:50 | Vrbl 5 | 9.00 | Overcast | OVC004 | 57.2 | 57.2 | 100% | 29.89 | 0.0 | |||||||
| 06 | 09:30 | Vrbl 5 | 10.00 | Overcast | OVC004 | 57.2 | 57.2 | 100% | 29.89 | 0.0 | |||||||
| 06 | 09:10 | Vrbl 5 | 10.00 | Overcast | OVC004 | 57.2 | 57.2 | 100% | 29.86 | 0.0 | |||||||
| 06 | 08:50 | NW 8 G 16 | 10.00 | Mostly Cloudy | BKN004 BKN008 | 57.2 | 57.2 | 100% | 29.84 | 0.0 | |||||||
| 06 | 08:30 | Calm | 9.00 | Mostly Cloudy | FEW004 BKN009 | 59 | 59 | 100% | 29.83 | 0.0 | |||||||
| 06 | 08:10 | Vrbl 5 | 10.00 | Mostly Cloudy | SCT005 BKN011 | 57.2 | 57.2 | 100% | 29.83 | 0.0 | |||||||
| 06 | 07:50 | NE 3 | 10.00 | Partly Cloudy | SCT006 SCT013 | 57.2 | 57.2 | 100% | 29.82 | 0.0 | |||||||
| 06 | 07:30 | N 13 G 20 | 3.00 | Fog/Mist | BKN005 BKN011 OVC017 | 57.2 | 57.2 | 100% | 29.84 | 0.0 | |||||||
| 06 | 07:10 | N 8 G 15 | 3.00 | Fog/Mist | BKN004 BKN023 OVC085 | 60.8 | 60.8 | 100% | 29.86 | 0.0 | |||||||
| 06 | 06:50 | Calm | 9.00 | Mostly Cloudy | FEW055 FEW070 BKN085 | 66.2 | 66.2 | 100% | 29.82 | 0.0 | |||||||
| 06 | 06:30 | S 5 | 9.00 | Mostly Cloudy | FEW030 SCT047 BKN110 | 66.2 | 66.2 | 100% | 29.78 | 0.0 | |||||||
| 06 | 06:10 | SE 9 | 4.00 | Fog/Mist | FEW003 BKN030 OVC065 | 66.2 | 66.2 | 100% | 29.77 | 0.0 | |||||||
| 06 | 05:45 | SE 7 | 2.00 | Fog/Mist | BKN004 BKN028 OVC038 | 66.2 | 66.2 | 100% | 29.79 | 0.0 | |||||||
| 06 | 05:30 | Calm | 2.50 | Fog/Mist | BKN006 BKN014 OVC035 | 66.2 | 66.2 | 100% | 29.79 | 0.0 | |||||||
| 06 | 05:10 | N 6 | 2.50 | Fog/Mist | FEW003 SCT010 BKN020 | 66.2 | 66.2 | 100% | 29.79 | 0.0 | |||||||
| 06 | 04:50 | SW 5 | 2.00 | Fog/Mist | FEW003 OVC023 | 66.2 | 66.2 | 100% | 29.77 | 0.0 | |||||||
| 06 | 04:30 | S 6 | 3.00 | Fog/Mist | OVC023 | 66.2 | 66.2 | 100% | 29.76 | 0.0 | |||||||
| 06 | 04:10 | S 6 | 6.00 | Fog/Mist | OVC026 | 68 | 68 | 100% | 29.76 | 0.0 | |||||||
| 06 | 03:50 | SW 8 | 4.00 | Fog/Mist | BKN028 BKN042 OVC110 | 68 | 68 | 100% | 29.76 | 0.0 | |||||||
| 06 | 03:30 | S 13 G 18 | 8.00 | Mostly Cloudy | FEW029 SCT038 BKN080 | 68 | 68 | 100% | 29.74 | 0.0 | |||||||
| 06 | 03:10 | S 12 | 6.00 | Fog/Mist | FEW022 SCT032 BKN039 | 68 | 66.2 | 94% | 29.73 | 0.0 | |||||||
| 06 | 02:50 | S 14 | 10.00 | Overcast | SCT032 BKN043 OVC120 | 68 | 64.4 | 88% | 29.74 | 0.0 | |||||||
| 06 | 02:30 | SW 15 | 10.00 | Overcast | BKN033 OVC040 | 71.6 | 60.8 | 69% | 29.76 | 0.0 | |||||||
| 06 | 02:10 | S 16 G 23 | 10.00 | Mostly Cloudy | BKN038 BKN045 BKN060 | 69.8 | 60.8 | 73% | 29.74 | 0.0 | |||||||
| 06 | 01:50 | S 14 G 22 | 10.00 | Partly Cloudy | FEW041 SCT049 SCT060 | 69.8 | 60.8 | 73% | 29.73 | 0.0 | |||||||
| 06 | 01:35 | S 15 G 22 | 10.00 | Mostly Cloudy | FEW041 SCT047 BKN075 | 69.8 | 59 | 69% | 29.72 | 0.0 | |||||||
| 06 | 01:10 | S 13 G 22 | 10.00 | Mostly Cloudy | BKN042 BKN080 | 69.8 | 59 | 69% | 29.74 | 0.0 | |||||||
| 06 | 00:50 | S 16 G 22 | 10.00 | Partly Cloudy | FEW043 SCT049 SCT060 | 69.8 | 59 | 69% | 29.74 | 0.0 | |||||||
| 06 | 00:35 | S 16 | 10.00 | Mostly Cloudy | FEW043 SCT049 BKN055 | 69.8 | 59 | 69% | 29.76 | 0.0 | |||||||
| 06 | 00:10 | S 16 G 22 | 10.00 | Partly Cloudy | FEW045 SCT090 | 69.8 | 59 | 69% | 29.76 | 0.0 | |||||||
| 05 | 23:50 | S 15 G 24 | 10.00 | Mostly Cloudy | BKN085 | 69.8 | 57.2 | 64% | 29.77 | 0.0 | |||||||
| 05 | 23:35 | S 15 G 22 | 10.00 | Mostly Cloudy | BKN085 | 69.8 | 57.2 | 64% | 29.76 | 0.0 | |||||||
| 05 | 23:10 | S 14 G 21 | 10.00 | Overcast | SCT043 BKN075 OVC085 | 69.8 | 57.2 | 64% | 29.77 | 0.0 | |||||||
| 05 | 22:50 | S 14 | 10.00 | Overcast | FEW044 BKN049 OVC090 | 69.8 | 57.2 | 64% | 29.78 | 0.0 | |||||||
| 05 | 22:35 | S 17 | 10.00 | Overcast | SCT044 BKN050 OVC085 | 69.8 | 57.2 | 64% | 29.78 | 0.0 | |||||||
| 05 | 22:10 | S 12 G 22 | 10.00 | Overcast | BKN043 OVC050 | 69.8 | 57.2 | 64% | 29.78 | 0.0 | |||||||
| 05 | 21:50 | S 12 | 10.00 | Overcast | OVC043 | 69.8 | 57.2 | 64% | 29.79 | 0.0 | |||||||
| 05 | 21:35 | S 12 G 21 | 10.00 | Overcast | BKN045 BKN050 OVC070 | 69.8 | 57.2 | 64% | 29.78 | 0.0 | |||||||
| 05 | 21:10 | S 16 G 25 | 10.00 | Mostly Cloudy | FEW035 SCT047 BKN050 | 69.8 | 57.2 | 64% | 29.78 | 0.0 | |||||||
| 05 | 20:50 | S 21 G 29 | 10.00 | Overcast and Breezy | SCT037 OVC045 | 69.8 | 55.4 | 60% | 29.79 | 0.0 | |||||||
| 05 | 20:35 | S 10 G 24 | 10.00 | Overcast | BKN040 OVC075 | 69.8 | 55.4 | 60% | 29.78 | 0.0 | |||||||
| 05 | 20:10 | S 13 G 18 | 10.00 | Overcast | OVC042 | 69.8 | 55.4 | 60% | 29.78 | 0.0 | |||||||
| 05 | 19:50 | S 13 G 21 | 10.00 | Overcast | OVC043 | 71.6 | 55.4 | 57% | 29.79 | 0.0 | |||||||
| 05 | 19:35 | SW 13 G 21 | 10.00 | Overcast | OVC045 | 71.6 | 55.4 | 57% | 29.78 | 0.0 | |||||||
| 05 | 19:10 | S 15 G 21 | 10.00 | Overcast | OVC044 | 71.6 | 53.6 | 53% | 29.77 | 0.0 | |||||||
| 05 | 18:50 | S 15 G 21 | 10.00 | Overcast | BKN043 OVC060 | 71.6 | 53.6 | 53% | 29.77 | 0.0 | |||||||
| 05 | 18:30 | S 10 G 20 | 10.00 | Mostly Cloudy | SCT044 BKN065 BKN085 | 71.6 | 53.6 | 53% | 29.77 | 0.0 | |||||||
| 05 | 18:10 | S 15 G 26 | 10.00 | Mostly Cloudy | FEW043 FEW050 BKN085 | 71.6 | 53.6 | 53% | 29.77 | 0.0 | |||||||
| 05 | 17:50 | S 14 G 23 | 10.00 | A Few Clouds | FEW049 FEW085 | 71.6 | 51.8 | 50% | 29.78 | 0.0 | |||||||
| 05 | 17:30 | S 14 G 20 | 10.00 | Fair | CLR | 71.6 | 51.8 | 50% | 29.79 | 0.0 | |||||||
| 05 | 17:10 | S 18 G 30 | 10.00 | A Few Clouds | FEW090 | 71.6 | 51.8 | 50% | 29.79 | 0.0 | |||||||
| 05 | 16:50 | S 17 G 23 | 10.00 | Fair | CLR | 73.4 | 53.6 | 50% | 29.79 | 0.0 | |||||||
| 05 | 16:30 | S 13 G 20 | 10.00 | Fair | CLR | 71.6 | 53.6 | 53% | 29.79 | 0.0 | |||||||
| 05 | 16:10 | S 16 G 23 | 10.00 | Fair | CLR | 71.6 | 51.8 | 50% | 29.79 | 0.0 | |||||||
| 05 | 15:50 | S 14 G 22 | 10.00 | Fair | CLR | 69.8 | 51.8 | 53% | 29.78 | 0.0 | |||||||
| 05 | 15:30 | SW 13 G 23 | 10.00 | Fair | CLR | 68 | 51.8 | 56% | 29.83 | 0.0 | |||||||
| 05 | 15:10 | S 13 G 20 | 10.00 | Fair | CLR | 69.8 | 53.6 | 57% | 29.8 | 0.0 | |||||||
| 05 | 14:50 | S 9 G 18 | 10.00 | Fair | CLR | 68 | 53.6 | 60% | 29.8 | 0.0 | |||||||
| 05 | 14:30 | S 13 G 20 | 10.00 | Fair | CLR | 68 | 53.6 | 60% | 29.8 | 0.0 | |||||||
| 05 | 14:10 | S 12 G 20 | 10.00 | Fair | CLR | 66.2 | 55.4 | 68% | 29.82 | 0.0 | |||||||
| 05 | 13:50 | S 15 G 23 | 6.00 | Fair with Haze | CLR | 66.2 | 55.4 | 68% | 29.82 | 0.0 | |||||||
| 05 | 13:30 | S 8 G 17 | 10.00 | Fair | CLR | 69.8 | 51.8 | 53% | 29.84 | 0.0 | |||||||
| 05 | 13:10 | S 8 G 18 | 10.00 | Fair | CLR | 69.8 | 51.8 | 53% | 29.85 | 0.0 | |||||||
| 05 | 12:50 | S 7 | 10.00 | Fair | CLR | 68 | 51.8 | 56% | 29.86 | 0.0 | |||||||
| 05 | 12:30 | S 7 G 17 | 10.00 | Fair | CLR | 68 | 51.8 | 56% | 29.87 | 0.0 | |||||||
| 05 | 12:10 | S 8 | 10.00 | Fair | CLR | 68 | 53.6 | 60% | 29.88 | 0.0 | |||||||
| 05 | 11:50 | S 9 | 10.00 | Fair | CLR | 68 | 51.8 | 56% | 29.9 | 0.0 | |||||||
| 05 | 11:30 | S 8 G 16 | 10.00 | Fair | CLR | 68 | 53.6 | 60% | 29.91 | 0.0 | |||||||
| 05 | 11:10 | SW 10 | 10.00 | Fair | CLR | 68 | 51.8 | 56% | 29.92 | 0.0 | |||||||
| 05 | 10:50 | SW 10 G 18 | 10.00 | Fair | CLR | 68 | 51.8 | 56% | 29.92 | 0.0 | |||||||
| 05 | 10:30 | SW 10 | 10.00 | Fair | CLR | 68 | 51.8 | 56% | 29.92 | 0.0 | |||||||
| 05 | 10:05 | SW 10 | 10.00 | Fair | CLR | 68 | 51.8 | 56% | 29.91 | 0.0 | |||||||
| 05 | 09:50 | S 14 | 10.00 | Fair | CLR | 66.2 | 51.8 | 60% | 29.91 | 0.0 | |||||||
| 05 | 09:30 | SW 9 G 18 | 10.00 | Fair | CLR | 66.2 | 51.8 | 60% | 29.91 | 0.0 | |||||||
| 05 | 09:10 | SW 10 G 18 | 10.00 | Fair | CLR | 64.4 | 51.8 | 64% | 29.9 | 0.0 | |||||||
| 05 | 08:50 | SW 13 | 10.00 | Fair | CLR | 64.4 | 51.8 | 64% | 29.9 | 0.0 | |||||||
| 05 | 08:30 | SW 15 | 10.00 | Fair | CLR | 62.6 | 51.8 | 68% | 29.89 | 0.0 | |||||||
| 05 | 08:10 | S 7 | 10.00 | Fair | CLR | 62.6 | 51.8 | 68% | 29.89 | 0.0 | |||||||
| 05 | 07:50 | S 9 | 10.00 | Fair | CLR | 60.8 | 51.8 | 72% | 29.89 | 0.0 | |||||||
| 05 | 07:20 | S 7 | 10.00 | Fair | CLR | 60.8 | 51.8 | 72% | 29.89 | 0.0 | |||||||
| 05 | 07:10 | S 6 | 10.00 | Fair | CLR | 60.8 | 51.8 | 72% | 29.89 | 0.0 | |||||||
| 05 | 06:50 | S 6 | 10.00 | Fair | CLR | 59 | 51.8 | 77% | 29.88 | 0.0 | |||||||
| 05 | 06:30 | S 5 | 10.00 | Fair | CLR | 59 | 51.8 | 77% | 29.87 | 0.0 | |||||||
| 05 | 06:10 | S 5 | 10.00 | Fair | CLR | 59 | 51.8 | 77% | 29.86 | 0.0 | |||||||
| 05 | 05:50 | S 5 | 10.00 | Fair | CLR | 59 | 50 | 72% | 29.86 | 0.0 | |||||||
| 05 | 05:30 | S 3 | 10.00 | Fair | CLR | 59 | 50 | 72% | 29.86 | 0.0 | |||||||
| 05 | 05:10 | S 6 | 10.00 | Fair | CLR | 59 | 50 | 72% | 29.84 | 0.0 | |||||||
| 05 | 04:50 | S 7 | 10.00 | Fair | CLR | 59 | 50 | 72% | 29.84 | 0.0 | |||||||
| 05 | 04:30 | S 7 | 10.00 | Fair | CLR | 59 | 50 | 72% | 29.84 | 0.0 | |||||||
| 05 | 04:10 | S 7 | 10.00 | Fair | CLR | 59 | 48.2 | 68% | 29.83 | 0.0 | |||||||
| 05 | 03:45 | S 3 | 10.00 | Fair | CLR | 60.8 | 48.2 | 63% | 29.84 | 0.0 | |||||||
| 05 | 03:30 | S 7 | 10.00 | Fair | CLR | 60.8 | 48.2 | 63% | 29.84 | 0.0 | |||||||
| 05 | 03:10 | S 7 | 10.00 | Fair | CLR | 60.8 | 48.2 | 63% | 29.82 | 0.0 | |||||||
| 05 | 02:50 | S 8 | 10.00 | Fair | CLR | 60.8 | 48.2 | 63% | 29.82 | 0.0 | |||||||
| 05 | 02:30 | S 8 | 10.00 | Fair | CLR | 60.8 | 48.2 | 63% | 29.84 | 0.0 | |||||||
| 05 | 02:10 | SW 7 | 10.00 | Fair | CLR | 60.8 | 48.2 | 63% | 29.85 | 0.0 | |||||||
| 05 | 01:50 | SW 7 | 10.00 | Fair | CLR | 60.8 | 48.2 | 63% | 29.86 | 0.0 | |||||||
| 05 | 01:35 | SW 6 | 10.00 | Fair | CLR | 62.6 | 48.2 | 60% | 29.86 | 0.0 | |||||||
| 05 | 01:10 | S 8 | 10.00 | Fair | CLR | 62.6 | 48.2 | 60% | 29.86 | 0.0 | |||||||
| 05 | 00:50 | S 9 | 10.00 | Fair | CLR | 62.6 | 48.2 | 60% | 29.86 | 0.0 | |||||||
| 05 | 00:35 | S 8 | 10.00 | Fair | CLR | 64.4 | 48.2 | 56% | 29.86 | 0.0 | |||||||
| 05 | 00:10 | S 9 | 10.00 | Fair | CLR | 64.4 | 46.4 | 52% | 29.86 | 0.0 | |||||||
| 04 | 23:50 | S 9 | 10.00 | Fair | CLR | 64.4 | 46.4 | 52% | 29.86 | 0.0 | |||||||
| 04 | 23:35 | S 9 | 10.00 | Fair | CLR | 64.4 | 46.4 | 52% | 29.86 | 0.0 | |||||||
| 04 | 23:10 | S 7 | 10.00 | Fair | CLR | 64.4 | 46.4 | 52% | 29.86 | 0.0 | |||||||
| 04 | 22:50 | S 7 | 10.00 | Fair | CLR | 64.4 | 46.4 | 52% | 29.86 | 0.0 | |||||||
| 04 | 22:35 | S 8 | 10.00 | Fair | CLR | 64.4 | 46.4 | 52% | 29.86 | 0.0 | |||||||
| 04 | 22:10 | S 8 | 10.00 | Fair | CLR | 64.4 | 48.2 | 56% | 29.86 | 0.0 | |||||||
| 04 | 21:50 | S 8 | 10.00 | Fair | CLR | 64.4 | 48.2 | 56% | 29.86 | 0.0 | |||||||
| 04 | 21:35 | S 8 | 10.00 | A Few Clouds | FEW070 | 64.4 | 46.4 | 52% | 29.86 | 0.0 | |||||||
| 04 | 21:10 | S 5 | 10.00 | Partly Cloudy | SCT070 | 66.2 | 46.4 | 49% | 29.85 | 0.0 | |||||||
| 04 | 20:50 | S 5 | 10.00 | Partly Cloudy | SCT070 | 68 | 46.4 | 46% | 29.85 | 0.0 | |||||||
| 04 | 20:35 | S 3 | 10.00 | Partly Cloudy | SCT070 | 68 | 46.4 | 46% | 29.85 | 0.0 | |||||||
| 04 | 20:10 | S 7 | 10.00 | Partly Cloudy | SCT070 | 68 | 44.6 | 43% | 29.85 | 0.0 | |||||||
| 04 | 19:50 | S 7 | 10.00 | Fair | CLR | 69.8 | 44.6 | 40% | 29.84 | 0.0 | |||||||
| 04 | 19:35 | S 8 | 10.00 | A Few Clouds | FEW080 | 71.6 | 44.6 | 38% | 29.84 | 0.0 | |||||||
| 04 | 19:10 | SW 8 G 14 | 10.00 | A Few Clouds | FEW075 | 73.4 | 44.6 | 36% | 29.84 | 0.0 | |||||||
| 04 | 18:55 | SW 10 | 10.00 | Fair | CLR | 75.2 | 44.6 | 34% | 77 | 29.84 | 0.0 | ||||||
| 04 | 18:30 | SW 15 | 10.00 | Fair | CLR | 77 | 44.6 | 32% | 78 | 29.84 | 0.0 | ||||||
| 04 | 18:10 | SW 16 G 24 | 10.00 | Fair | CLR | 77 | 44.6 | 32% | 78 | 29.84 | 0.0 | ||||||
| 04 | 17:55 | SW 15 G 22 | 10.00 | Fair | CLR | 77 | 42.8 | 30% | 78 | 29.84 | 0.0 | ||||||
| 04 | 17:30 | SW 16 G 26 | 10.00 | Fair | CLR | 78.8 | 42.8 | 28% | 78 | 29.84 | 0.0 | ||||||
| 04 | 17:10 | SW 13 G 26 | 10.00 | Fair | CLR | 77 | 42.8 | 30% | 78 | 29.84 | 0.0 | ||||||
| 04 | 16:55 | SW 15 G 26 | 10.00 | Fair | CLR | 78.8 | 44.6 | 30% | 79 | 29.84 | 0.0 | ||||||
| 04 | 16:10 | SW 18 G 25 | 10.00 | Fair | CLR | 78.8 | 46.4 | 32% | 79 | 29.84 | 0.0 | ||||||
| 04 | 15:55 | SW 16 G 28 | 10.00 | Fair | CLR | 78.8 | 46.4 | 32% | 79 | 29.85 | 0.0 | ||||||
| 04 | 15:30 | S 14 G 20 | 10.00 | A Few Clouds | FEW070 | 80.6 | 48.2 | 32% | 80 | 29.85 | 0.0 | ||||||
| 04 | 15:10 | SW 15 G 22 | 10.00 | Fair | CLR | 80.6 | 48.2 | 32% | 80 | 29.86 | 0.0 | ||||||
| 04 | 14:30 | SW 15 | 10.00 | Fair | CLR | 78.8 | 50 | 37% | 79 | 29.88 | 0.0 | ||||||
| 04 | 14:10 | S 12 G 22 | 10.00 | Fair | CLR | 78.8 | 50 | 37% | 79 | 29.89 | 0.0 | ||||||
| 04 | 13:55 | SW 12 G 24 | 10.00 | Fair | CLR | 78.8 | 48.2 | 34% | 79 | 29.89 | 0.0 | ||||||
| 04 | 13:30 | SW 17 | 10.00 | A Few Clouds | FEW065 | 78.8 | 50 | 37% | 79 | 29.89 | 0.0 | ||||||
| 04 | 13:10 | SW 15 G 22 | 10.00 | A Few Clouds | FEW065 | 78.8 | 50 | 37% | 79 | 29.9 | 0.0 | ||||||
| 04 | 12:55 | SW 16 | 10.00 | Fair | CLR | 78.8 | 50 | 37% | 79 | 29.9 | 0.0 | ||||||
| 04 | 12:30 | W 10 G 18 | 10.00 | Fair | CLR | 77 | 48.2 | 36% | 78 | 29.91 | 0.0 | ||||||
| 04 | 12:10 | SW 15 G 23 | 10.00 | Fair | CLR | 77 | 48.2 | 36% | 78 | 29.92 | 0.0 | ||||||
| 04 | 11:55 | SW 12 G 17 | 10.00 | Fair | CLR | 77 | 51.8 | 42% | 78 | 29.93 | 0.0 | ||||||
| 04 | 11:30 | SW 12 G 18 | 10.00 | Fair | CLR | 75.2 | 51.8 | 44% | 78 | 29.94 | 0.0 | ||||||
| 04 | 11:10 | SW 10 G 21 | 10.00 | Fair | CLR | 73.4 | 51.8 | 47% | 29.95 | 0.0 | |||||||
| 04 | 10:55 | SW 14 G 21 | 10.00 | Fair | CLR | 73.4 | 51.8 | 47% | 29.95 | 0.0 | |||||||
| 04 | 10:30 | SW 15 | 10.00 | Fair | CLR | 71.6 | 50 | 47% | 29.95 | 0.0 | |||||||
| 04 | 10:10 | SW 16 G 22 | 10.00 | Fair | CLR | 71.6 | 50 | 47% | 29.95 | 0.0 | |||||||
| 04 | 09:55 | SW 14 | 10.00 | Fair | CLR | 69.8 | 50 | 50% | 29.95 | 0.0 | |||||||
| 04 | 09:30 | SW 16 | 10.00 | Fair | CLR | 69.8 | 50 | 50% | 29.96 | 0.0 | |||||||
| 04 | 09:10 | SW 14 | 10.00 | Fair | CLR | 68 | 48.2 | 49% | 29.96 | 0.0 | |||||||
| Date | Time (cdt) | Wind (mph) | Vis. (mi.) | Weather | Sky Cond. | Air | Dwpt | Max. | Min. | Relative Humidity | Wind Chill (°F) | Heat Index (°F) | altimeter (in) | sea level (mb) | 1 hr | 3 hr | 6 hr |
| 6 hour | |||||||||||||||||
| Temperature (ºF) | Pressure | Precipitation (in) | |||||||||||||||